Showing default

INTELSAT 31, 41581

Orbit data source: Space-Track

INTELSAT 31, 41581 is an American payload satellite in GEO that was launched on Thu, 09 Jun 2016 UTC via a PROTON-M/BRIZ-M launch vehicle from the Tyuratam Missile And Space Complex (TTMTR). Payloads include a variety of satellites, spacecraft, and rockets equipped with specific instruments for various scientific and technological missions. These include communications satellites like Starlink; space stations such as the ISS; scientific satellites like the Hubble; Earth observation satellites from companies like Planet Labs, Umbra, and HawkEye 360; GPS; miniature CubeSats for education and research; and military/defense satellites.

Loading next visibility...
INTELSAT 31 details
Identifier
41581, 2016-035A
Orbit
GEO
Last TLE update2 days ago
Origin
Flag of USINTELU/DTVLA (US / ITSO)
ManufacturerSS/Loral (MDA)
MissionOperational Commercial Communications
Bus & MotorLS-1300S, R-4D-11
Mass6,450 kg wet, 3,000 kg dry
Launch date (UTC)
2016-06-09 (9 years ago)
Launch vehicle
PROTON-M/BRIZ-M
Launch site
Tyuratam Missile And Space Complex (TTMTR)
Object type
Payload
Rocket body
Debris
Shape & HBRBox + 2 Pan, Unknown HBR
Radar Cross Section55.801 m², Large (>1 m²)

Expand to show TLE details & history

TLE from 2 days ago
0 INTELSAT 31
1 41581U 16035A   24359.26646644 -.00000127  00000-0  00000-0 0  9996
2 41581   0.0188  88.8092 0001765  86.2312 279.1014  1.00272312 31279
Epoch: 2024-12-24T06:23Z
Definitive object data (Epoch: 2024-12-24T06:23:42.7Z)
Latitude0.01451°
Longitude-95.0873°
Altitude35,784.762 km
Speed3.075 km/s
True Right ascension06h 16m 28s
True Declination0° 00' 52"
Sunlit
Object was in daylight at TLE epoch
Visualization TLE readout
Latitude0.02055°
Longitude-28.99878°
Altitude35,778.849 km
Speed3.075 km/s
Apparent Right ascension10h 46m 04s
Apparent Declination-6° 11' 54"
Sunlit
Object is in daylight
Visualization observer readout
Local Sidereal Time10:00:38
Azimuth164.548° S
Elevation42.71°
Doppler factor1
Orbital elements
Apogee altitude35,794.96 km
Perigee altitude35,780.075 km
Semi-major axis42,165.655 km
Eccentricity0.0001765
Inclination0.0188°
RAAN88.8092°
Arg. of periapsis86.2312°
True anomaly279.08143°
Mean anomaly279.1014°
Eccentric anomaly279.09141°
Mean motion0.25067 °/min
BSTARUnknown
Orbital period1436.14 mins
Loading historical data...
41581 neighbors
Authenticating...
Loading maneuver chart data...
Loading historical data...
Loading historical data...
Loading historical data...
Loading historical data...
Loading historical data...
Loading historical data...
Loading historical data...
Other satellites on launch #35 in the year 2016 (2016-06-09 UTC)

INTELSAT 31 Visibility forecast

Observer location: undefined°, undefined

Span
Click to sort rows by Start time (UTC) header in descending order
Start Az.
Max El. time (UTC)
Max El. Az.
Max El.
End time (UTC)
End Az.
1440 mins2024-12-26 10:39:25.184Z164.554° S2024-12-27 09:32:25.184Z164.559° S34.145°2024-12-27 10:39:25.184Z164.551° S
|